Weather Roundup
Issued by NWS Springfield, MO

Home | Current Version | Previous Version | Text Only | Print | Product List | Glossary On
Versions: 1 2 3 4 5 6 7 8 9 10 11 12 13 14 15 16 17 18 19 20 21 22 23 24 25 26 27 28 29 30 31 32 33 34 35 36 37 38 39 40 41 42 43 44 45 46 47 48 49 50
000
NZUS99 KSGF 020707
HRRSGF

HOURLY WEATHER
NATIONAL WEATHER SERVICE SPRINGFIELD MO
200 AM CDT TUE JUN 02 2015

......SGF CWA......

CITY           SKY/WX    TMP DP  RH WIND       PRES   REMARKS
SPRINGFIELD    CLEAR     56  53  90 E6        30.11S
JOPLIN         CLEAR     56  54  93 NE6       30.10S
WEST PLAINS    CLOUDY    58  55  90 NE3       30.12F
ROLLA          CLOUDY    57  56  96 CALM      30.11F
OSAGE BEACH    CLOUDY    57  55  94 NE6       30.12F
BRANSON        CLOUDY    59  55  88 CALM      30.12S

......SURROUNDING SGF CWA......

CITY           SKY/WX    TMP DP  RH WIND       PRES   REMARKS
CHANUTE        CLOUDY    58  55  90 E10       30.10F
PARSONS        CLOUDY    61  58  90 VRB3      30.10F
COFFEYVILLE    CLOUDY    62  58  86 E7        30.08F
EMPORIA        CLOUDY    57  55  93 SE9       30.09F
GROVE OK       MOCLDY    61  61 100 CALM      30.08F
ROGERS AR      CLEAR     61  58  90 E7        30.10S
SILOAM SPRINGS CLEAR     61  54  77 E3        30.09S
HARRISON AR    CLOUDY    61  59  93 SE7       30.11S
NEAR YELLVILLE CLOUDY    63  57  82 E5        30.10S

......KANSAS AND MISSOURI......

CITY           SKY/WX    TMP DP  RH WIND       PRES   REMARKS
KANSAS CTY INT CLOUDY    59  53  80 S8        30.12F
DOWNTOWN KC    CLOUDY    62  52  69 S9        30.12S
COLUMBIA       CLOUDY    58  56  93 E3        30.13S
SEDALIA        CLOUDY    60  55  83 SE5       30.14S
ST JOSEPH      CLOUDY    61  54  77 S12       30.12S
ST LOUIS       MOCLDY    63  56  78 CALM      30.12S
SPIRIT OF STL  CLOUDY    59  58  96 SW3       30.11S
KIRKSVILLE     CLEAR     51  51 100 CALM      30.14S FOG
WICHITA        MOCLDY    65  58  78 SE12      30.05S
TOPEKA         CLEAR     56  53  90 SE6       30.10F
OLATHE         CLOUDY    59  53  80 S5        30.12S

......TENNESSEE......

CITY           SKY/WX    TMP DP  RH WIND       PRES   REMARKS
MEMPHIS        CLEAR     62  59  90 N3        30.08S FOG
NASHVILLE      CLOUDY    62  60  93 N7        30.07S

......ARKANSAS.......

CITY           SKY/WX    TMP DP  RH WIND       PRES   REMARKS
FAYETTEVILLE   CLEAR     59  59 100 CALM      30.08S
FT SMITH       CLEAR     67  63  87 E8        30.05S
LITTLE ROCK    CLOUDY    68  61  78 E3        30.08F

......OKLAHOMA.......

CITY           SKY/WX    TMP DP  RH WIND       PRES   REMARKS
TULSA          CLEAR     66  61  84 CALM      30.05S
PONCA CITY     CLOUDY    68  59  73 SE12      30.04S
MCALESTER      CLEAR     63  61  93 CALM      30.05S
OKLAHOMA CITY  PTCLDY    65  62  90 SE7       30.03F

......IOWA............

CITY           SKY/WX    TMP DP  RH WIND       PRES   REMARKS
DES MOINES     PTCLDY    57  52  83 S5        30.13S
QUAD CITIES    CLEAR     52  47  83 E7        30.16R

......ILLINOIS........

CITY           SKY/WX    TMP DP  RH WIND       PRES   REMARKS
QUINCY         CLEAR     56  53  90 E5        30.13S
CHICAGO        CLEAR     45  37  73 N3        30.17F




USA.gov is the U.S. government's official web portal to all federal, state and local government web resources and services.